sat.trackr.live / text

‹ back to catalog

STARLINK-4116

NORAD 53164 · 2022-083AJ

PAYLOAD ACTIVE UNKNOWN

§ Identity

Operator
Country
US
Launch date
2022-07-17
Launch site
AFETR
Launch vehicle
Mass (kg)
RCS (m²)

Purposes: comms

External: N2YO · Heavens-Above · Gunter

§ Orbital elements

Epoch: 2026-05-24T19:28:06.982752Z

Period
95.44 min
Inclination
53.2133°
Eccentricity
0.0001252
Mean motion
15.08830980 rev/d
Perigee alt
538.9 km
Apogee alt
540.6 km
Semi-major
6,917.9 km
B*
5.8079e-5
RAAN
182.3998°
Arg perigee
79.8942°
Mean anomaly
280.2191°
Rev number
21,285

§ Raw data

STARLINK-41161 53164U 22083AJ  26144.81119193  .00000636  00000+0  58079-4 0  99912 53164  53.2133 182.3998 0001252  79.8942 280.2191 15.08830980212850

JSON: /api/v1/satellites/53164 · /tle

For live sub-satellite position, see the globe view (requires WebGL).

§ Visibility from observer

Set your observer location to see the next 7 days of passes ≥ 10°. The values pass through the URL so the page stays shareable.

No JS? Fill the form by hand. The geolocation button needs JavaScript.